Lapse_Rate
7.3 7.3 7.2 7.2 7.1 7.0 7.3 7.3 7.2 7.4 7.2 7.3 7.2 7.2 7.4 7.2 6.6 6.8 7.1 7.3 7.1 6.8 6.7 6.8 6.2 5.7 5.6 5.6 6.0 5.8 5.9 6.2 6.7 6.4 6.5 6.7 6.7 6.3 6.4 6.4 6.3 5.9 5.9 5.8 5.7 5.6 5.8 5.8 5.6
7.2 7.2 7.1 6.7 6.7 7.1 7.8 7.2 7.0 7.2 7.5 7.0 6.9 6.9 7.0 7.1 6.7 6.7 6.8 6.9 6.8 6.6 6.6 6.4 6.2 6.0 5.8 5.6 5.5 5.4 5.5 5.9 6.0 6.1 5.9 6.3 6.4 6.2 6.3 6.5 6.5 6.4 6.1 5.9 5.9 5.8 5.6 5.5 5.7
7.1 7.1 7.0 6.5 6.9 7.3 6.9 6.7 6.9 7.1 6.9 6.8 6.6 6.6 6.8 7.0 6.8 6.7 6.6 6.7 6.6 6.5 6.5 6.4 6.1 5.8 5.7 5.4 5.5 5.4 5.4 5.4 5.6 5.4 5.8 5.7 6.0 6.3 6.6 6.4 6.5 6.2 6.3 6.1 6.0 6.0 5.8 5.7 5.6
6.8 6.8 6.6 6.7 7.2 7.0 7.2 7.0 7.4 7.2 6.9 6.8 6.7 6.4 6.6 6.6 6.6 6.5 6.6 6.6 6.7 6.8 6.2 6.0 6.0 5.9 5.6 5.8 5.7 5.5 5.4 5.5 5.4 5.4 5.7 5.7 5.7 5.8 6.1 6.1 6.1 6.1 6.0 5.9 5.8 5.7 5.7 5.9 6.1
6.6 6.5 6.4 6.5 7.0 7.1 7.2 7.3 7.4 7.0 7.1 6.8 6.5 6.7 6.7 6.7 6.6 6.6 6.5 6.5 6.5 6.5 6.6 6.4 6.1 6.1 6.0 5.8 5.8 5.7 5.7 5.6 5.5 5.6 5.5 5.5 5.7 5.6 5.8 6.0 5.9 6.0 5.9 5.9 5.8 5.7 5.8 5.7 5.8
6.7 6.4 6.3 6.7 7.3 7.0 7.2 7.2 7.1 6.9 7.0 6.9 6.4 6.6 6.4 6.4 6.6 6.5 6.4 6.3 6.3 6.3 6.2 6.3 6.2 6.1 6.2 6.1 6.0 6.0 5.9 5.7 5.6 5.7 5.6 5.6 5.6 5.8 5.7 5.5 5.7 5.9 5.9 5.8 5.8 5.8 5.7 5.8 5.7
6.4 6.2 6.4 6.7 7.2 7.0 7.0 7.1 6.8 6.5 6.8 6.6 6.9 6.6 6.7 6.5 6.3 6.2 6.1 6.2 6.3 6.3 6.3 6.2 6.1 6.1 6.1 6.1 6.1 6.1 6.1 6.1 6.1 5.7 5.7 5.6 5.7 5.7 5.9 5.8 5.7 5.6 5.7 5.8 5.7 5.7 5.7 5.6 5.6
6.2 6.0 6.3 6.7 6.8 6.8 6.5 6.9 6.5 6.4 6.8 6.9 6.4 6.5 6.9 7.0 6.3 6.2 6.1 6.0 5.9 5.9 5.9 6.0 6.1 6.2 6.2 6.1 6.0 6.2 6.1 6.0 5.8 5.9 5.8 5.7 5.7 5.6 5.7 5.9 6.0 5.8 5.8 5.7 5.8 5.6 5.6 5.6 5.6
6.4 6.0 6.4 6.4 6.5 6.5 6.5 6.5 6.4 6.3 6.3 6.4 6.3 6.5 6.7 6.2 6.3 6.2 6.1 6.1 5.9 5.7 5.6 5.5 5.5 5.5 5.6 5.7 5.8 5.9 6.0 6.0 6.0 6.0 6.1 6.3 6.2 5.9 5.8 5.8 5.7 5.9 5.9 5.9 6.0 6.0 6.0 5.7 5.6
6.4 6.4 6.4 6.6 6.5 6.4 6.5 6.3 6.4 6.2 6.2 6.2 6.2 6.3 6.2 6.1 6.1 6.1 6.1 6.0 5.7 5.6 5.5 5.4 5.3 5.3 5.3 5.4 5.4 5.5 5.6 5.8 6.0 6.1 6.2 6.3 6.4 6.2 6.1 6.0 6.1 6.0 6.0 6.1 6.1 6.0 6.0 6.0 6.0
6.5 6.7 6.7 6.8 6.6 6.4 6.4 6.4 6.6 6.1 6.3 6.4 6.2 6.1 5.9 5.9 5.9 5.9 6.0 5.9 5.8 5.7 5.5 5.4 5.4 5.3 5.3 5.3 5.3 5.4 5.5 5.7 6.0 6.3 6.3 6.3 6.1 6.0 6.1 6.2 6.2 6.1 6.2 6.3 6.3 6.4 6.2 6.1 6.1
6.2 6.5 6.5 6.7 6.6 6.3 6.3 6.2 6.5 6.1 6.0 6.4 6.5 6.1 5.9 5.9 5.8 5.8 5.8 5.7 5.6 5.6 5.6 5.5 5.5 5.4 5.3 5.3 5.3 5.4 5.5 5.6 5.7 5.9 6.0 6.2 6.4 6.5 6.5 6.5 6.5 6.3 6.3 6.3 6.3 6.3 6.5 6.6 6.4
5.9 6.2 6.6 6.6 6.5 6.2 6.2 6.1 6.0 6.3 6.5 6.3 6.5 6.1 5.9 5.9 5.7 5.6 5.5 5.4 5.3 5.3 5.3 5.3 5.3 5.3 5.3 5.2 5.2 5.3 5.3 5.4 5.4 5.3 5.4 5.6 5.7 6.0 6.2 6.4 6.6 6.8 6.8 6.7 6.7 6.6 6.5 6.5 6.7
6.3 6.3 6.4 6.5 6.5 6.4 6.3 6.0 6.3 6.2 6.4 6.0 6.3 6.2 6.0 6.0 5.9 5.7 5.5 5.3 5.2 5.2 5.2 5.2 5.1 5.0 5.0 4.8 4.8 4.8 4.9 4.9 5.0 5.1 5.1 5.1 5.3 5.4 5.5 5.6 6.0 6.3 6.6 6.8 6.9 6.9 7.0 7.0 6.8
6.1 6.0 6.4 6.7 6.6 6.5 6.6 6.3 7.0 6.0 6.5 6.3 6.3 6.2 6.1 6.1 6.1 6.0 5.7 5.6 5.4 5.3 5.1 5.1 5.1 5.0 4.9 4.9 4.9 5.0 4.9 5.0 5.2 5.3 5.5 5.9 6.2 6.4 6.4 6.5 6.7 6.8 6.7 6.5 6.8 7.0 7.0 6.9 6.8
6.0 5.9 6.1 6.9 6.8 6.6 6.3 6.6 6.7 6.9 6.9 6.6 6.4 6.3 6.4 6.2 5.9 5.7 5.8 5.5 5.3 5.2 5.1 5.0 5.0 5.0 4.9 4.9 5.0 4.9 4.9 5.0 5.1 5.3 5.4 5.5 5.7 5.9 6.1 6.2 6.5 6.7 6.9 7.1 7.1 7.1 7.1 7.2 7.1
5.9 5.8 6.1 5.8 6.3 6.1 6.3 6.4 6.8 6.9 6.9 7.0 7.0 6.8 6.7 6.5 6.3 5.9 5.8 5.4 5.2 5.1 5.0 4.9 4.8 4.8 4.7 4.6 4.7 4.7 4.7 4.7 4.8 4.8 4.9 5.1 5.3 5.5 5.7 5.8 6.0 6.2 6.4 6.6 7.0 7.2 7.2 7.2 7.3
5.9 5.6 6.1 6.2 5.7 6.0 5.9 6.5 6.2 6.5 6.5 6.5 6.8 6.8 6.8 6.6 6.3 5.8 5.7 5.4 5.2 5.0 4.7 4.7 4.5 4.4 4.3 4.2 4.3 4.3 4.4 4.7 4.7 4.7 4.6 4.7 4.9 5.0 5.0 5.1 5.3 5.4 5.6 5.9 6.2 6.3 6.6 6.9 7.1
6.2 6.2 5.9 6.8 5.9 5.7 6.0 5.6 6.9 6.2 6.3 7.0 7.1 6.9 6.8 6.6 6.1 5.7 5.5 5.3 5.0 4.9 4.6 4.4 4.4 4.2 4.1 4.2 4.4 4.6 4.7 4.5 4.5 4.4 4.4 4.6 4.7 5.1 5.3 5.1 4.9 4.8 4.7 4.4 4.3 4.6 5.1 5.4 5.8
6.0 5.9 6.0 5.9 5.7 5.4 5.6 5.5 6.0 6.4 6.6 7.3 7.0 6.8 6.9 6.7 6.3 5.9 5.7 5.3 4.8 4.5 4.6 4.5 4.2 4.1 4.1 4.2 4.4 4.6 4.5 4.4 4.4 4.5 4.6 4.7 4.7 4.7 4.8 4.7 4.5 4.2 4.4 4.1 3.5 3.2 2.9 2.7 2.9
6.2 5.9 5.9 5.5 5.6 5.5 5.1 5.4 6.1 6.7 6.8 7.3 7.7 7.9 7.4 7.2 6.4 6.4 6.0 5.2 4.7 4.5 4.4 4.1 4.0 4.0 4.0 4.0 4.2 4.2 4.3 4.3 4.4 4.2 4.2 4.0 4.0 3.9 3.5 3.4 3.4 3.1 2.8 2.7 2.4 2.5 2.6 2.5 2.2
6.0 6.3 6.0 5.6 5.2 4.7 4.0 3.4 5.2 5.9 6.5 6.7 7.3 7.6 7.5 7.3 6.9 6.7 6.0 5.6 4.9 4.4 4.4 3.9 3.8 3.8 3.8 3.7 3.7 3.7 3.9 4.2 4.0 3.8 3.6 3.6 3.2 2.8 2.7 2.7 2.6 2.4 2.2 2.0 1.8 2.0 2.2 2.3 2.5
6.0 5.8 5.4 5.0 4.8 4.0 4.3 4.0 4.8 5.6 6.2 6.8 6.9 7.2 7.1 7.0 6.7 6.3 6.1 5.2 4.7 4.8 4.0 3.9 3.8 3.5 3.5 3.6 3.7 3.9 3.8 3.8 3.6 3.4 3.3 3.0 2.7 2.4 2.3 2.3 2.3 2.0 1.6 1.5 1.5 1.9 2.1 2.1 2.3
5.6 4.7 4.2 4.2 3.8 2.5 5.0 5.3 4.5 6.1 6.7 6.8 6.8 7.0 7.0 7.0 6.7 6.4 6.3 5.7 5.7 5.0 4.4 4.0 3.8 3.6 3.6 3.7 3.6 3.6 3.5 3.4 3.2 3.1 2.8 2.5 2.2 2.1 2.1 2.1 1.8 1.3 1.4 1.6 1.9 2.1 2.1 2.2 2.3
5.4 4.7 4.3 4.2 3.0 3.5 5.3 4.3 4.8 5.9 6.4 6.7 6.6 6.7 6.5 6.4 6.3 6.3 6.4 6.2 5.7 5.2 4.6 4.1 3.8 3.7 3.7 3.5 3.4 3.3 3.1 3.0 2.8 2.5 2.1 2.1 2.0 2.0 2.1 1.8 1.4 1.4 1.6 2.0 2.2 2.2 2.4 2.6 2.9
5.6 5.2 5.4 5.5 5.8 4.3 4.9 4.2 6.3 6.2 6.5 6.7 6.8 6.7 6.4 6.3 6.1 6.0 6.1 5.6 5.3 4.6 4.2 3.8 3.6 3.5 3.2 3.2 3.0 2.9 2.8 2.5 2.2 2.0 2.0 1.9 1.9 2.1 2.1 1.6 1.6 1.8 2.1 2.3 2.4 3.0 4.2 5.0 5.5
4.8 5.1 5.6 5.1 4.7 4.2 4.7 5.5 5.7 6.0 6.2 6.5 6.8 6.6 6.2 6.1 5.9 5.9 5.7 5.3 4.8 4.3 3.7 3.4 3.1 3.0 3.0 2.8 2.8 2.7 2.5 2.2 2.1 2.0 1.9 1.8 2.1 2.1 1.7 1.8 2.0 2.2 2.5 3.3 4.6 5.5 5.6 5.6 5.5
5.7 5.0 4.7 4.7 4.0 4.4 4.7 5.6 5.8 6.3 6.7 6.7 7.0 7.0 6.5 6.3 6.2 5.9 5.5 5.0 4.5 4.0 3.6 3.4 3.1 2.9 2.6 2.6 2.6 2.4 2.2 2.1 2.0 1.8 1.9 2.1 2.3 2.0 1.9 2.1 2.3 3.1 4.3 5.3 5.6 5.7 5.6 5.4 5.3
5.9 5.1 5.0 5.0 4.5 4.4 4.1 4.7 5.9 6.8 7.0 6.9 6.8 6.5 6.1 6.0 5.8 5.3 4.8 4.5 4.0 3.5 3.1 2.9 2.9 2.7 2.6 2.5 2.5 2.3 2.2 2.0 1.8 2.0 2.0 2.3 2.2 2.0 2.1 2.5 3.6 5.0 5.5 5.5 5.6 5.6 5.5 5.5 5.3
5.5 5.5 5.4 5.4 4.8 4.8 4.5 4.3 5.8 6.8 6.9 6.7 6.3 5.8 5.6 5.3 5.0 3.9 3.7 3.9 3.5 3.0 2.8 2.7 2.3 2.2 2.4 2.5 2.5 2.2 2.0 1.9 2.0 2.1 2.2 2.2 2.2 2.3 2.6 3.9 5.3 5.5 5.5 5.7 5.9 5.9 5.6 5.5 5.6
Wind_Speed
17 13 4 3 0 3 8 4 6 7 4 6 9 5 11 12 5 3 6 5 6 7 8 13 15 18 19 22 23 24 26 27 28 27 27 28 28 28 28 29 28 27 26 24 25 25 21 4 5
11 12 1 3 2 5 4 7 6 10 8 7 8 3 6 6 8 11 7 6 10 8 12 12 14 18 19 21 22 23 24 26 26 26 27 28 27 27 27 27 27 27 27 25 24 23 21 21 5
9 7 2 3 4 5 2 5 12 9 9 4 4 7 5 4 9 5 8 8 14 11 12 11 13 17 18 19 21 22 23 24 25 25 26 25 25 26 26 27 26 26 26 25 25 23 22 20 20
4 2 4 3 10 4 3 10 13 10 5 5 11 7 5 7 5 7 6 8 11 11 12 11 12 15 18 19 20 21 22 25 25 25 24 24 24 24 24 25 25 25 25 24 24 24 23 22 20
3 4 3 6 11 6 2 10 10 9 9 7 1 7 6 6 9 9 7 8 8 8 9 9 11 11 15 18 19 20 22 23 23 25 24 22 23 23 23 23 24 23 24 23 23 23 23 23 20
2 2 4 7 11 6 4 7 6 6 7 5 5 7 5 11 9 7 8 7 10 8 9 9 10 11 13 16 17 19 20 21 22 23 22 21 21 23 22 22 24 23 23 22 22 21 21 21 21
3 3 7 11 5 6 6 6 4 6 8 4 8 6 7 10 10 7 7 10 10 8 8 8 11 11 11 13 16 18 19 20 22 23 24 21 21 22 22 22 24 23 23 22 22 22 21 20 18
2 2 5 8 6 2 8 8 6 3 5 3 8 7 6 11 11 8 7 7 7 8 8 8 10 11 10 12 15 16 17 19 20 20 22 22 21 23 23 22 24 23 22 22 22 22 23 21 18
2 2 5 6 7 6 8 5 2 2 7 3 3 4 11 19 13 8 7 7 6 6 6 9 9 10 10 12 12 14 17 18 17 17 21 19 18 19 19 21 22 22 22 22 23 23 22 22 20
4 3 3 3 3 6 11 7 9 6 8 4 6 12 14 15 12 10 8 7 7 6 6 7 9 10 11 10 9 10 10 11 16 17 18 17 18 18 19 19 22 22 22 22 23 24 22 21 18
5 4 4 3 3 5 10 8 9 6 9 9 15 15 13 12 12 10 8 8 7 6 5 5 8 10 12 11 13 13 14 15 17 18 20 20 16 15 16 14 15 16 20 17 21 20 18 20 18
4 2 3 4 0 3 7 5 4 9 2 3 16 17 14 12 9 8 7 7 7 7 6 5 8 8 9 10 10 11 12 13 13 14 14 14 12 13 13 13 15 15 16 16 16 15 19 18 20
6 3 3 6 3 6 3 5 4 10 7 8 19 16 14 10 9 8 8 7 7 6 6 5 8 7 6 6 7 6 5 6 6 7 9 11 11 9 11 10 11 12 14 14 14 14 14 15 17
6 5 3 4 4 1 2 5 4 5 9 12 15 15 13 12 11 8 8 7 7 7 6 5 6 5 6 6 8 7 8 9 10 8 8 5 7 10 12 12 12 13 14 14 13 13 12 11 14
1 3 6 9 7 3 3 8 12 5 10 13 13 13 12 10 11 10 9 8 8 6 7 5 5 4 5 6 6 7 8 9 8 7 8 9 10 9 9 9 8 9 13 15 15 13 11 9 13
4 4 4 5 11 6 5 7 8 17 15 13 13 12 12 10 11 10 8 8 7 7 7 5 4 5 4 4 4 5 7 8 7 8 8 8 10 9 9 8 7 12 10 9 8 5 4 7 8
6 5 8 3 11 6 8 5 4 13 14 16 16 15 14 13 10 9 9 8 7 7 7 6 4 3 3 2 2 3 4 6 7 11 9 10 11 10 9 8 11 14 10 8 6 3 4 5 6
2 5 6 6 8 9 9 15 8 13 13 16 16 16 15 14 14 11 11 9 8 7 6 6 4 4 2 2 4 5 7 7 8 9 9 11 11 12 12 11 11 12 6 4 4 5 4 5 6
2 5 9 5 5 6 14 16 16 17 16 17 17 17 16 15 13 11 10 8 8 7 7 5 4 3 1 2 2 2 2 3 3 7 9 10 7 9 8 10 11 13 5 6 7 5 6 4 5
5 7 8 1 4 1 9 20 16 16 24 24 21 19 19 17 17 14 12 9 8 7 7 6 5 4 2 0 1 1 3 3 5 10 7 7 8 10 10 8 7 8 4 5 6 6 6 5 6
4 6 6 3 3 9 5 12 12 12 22 19 19 17 17 20 19 17 15 11 8 8 8 7 5 4 2 1 2 3 3 3 2 3 3 6 10 11 10 8 7 7 6 4 5 5 6 7 3
3 4 4 4 5 4 3 9 7 7 4 19 17 15 16 17 16 16 15 12 11 8 7 6 5 3 2 2 2 3 2 2 2 2 2 6 12 12 12 10 8 7 6 5 5 7 4 4 6
1 3 3 1 4 5 6 3 4 5 5 6 12 13 12 13 15 16 14 12 9 8 7 7 6 5 3 3 3 3 3 2 2 3 5 5 9 13 12 11 10 7 7 7 6 6 5 5 5
5 3 4 3 2 3 12 12 3 5 6 3 4 11 13 13 13 14 13 11 8 8 7 6 5 4 2 1 3 3 3 4 4 4 4 4 3 6 11 12 10 9 7 5 5 5 6 5 6
0 2 2 2 1 6 7 6 12 4 3 3 9 7 8 10 12 14 15 10 9 9 8 6 5 3 0 2 3 4 4 5 5 5 4 5 3 3 5 9 7 6 10 10 9 6 6 6 7
6 2 3 5 3 4 2 7 7 1 4 4 4 5 8 9 9 9 11 9 8 6 5 4 3 2 1 3 4 4 5 3 4 4 4 4 4 4 8 9 10 10 10 10 10 5 6 7 7
5 4 1 1 5 3 5 6 2 2 2 3 2 8 9 9 8 7 8 8 8 8 7 7 6 4 3 2 3 4 5 5 5 6 5 4 5 6 10 10 9 11 11 11 9 7 8 8 9
0 1 2 1 4 6 6 8 9 5 8 8 8 9 9 10 10 9 8 8 6 6 7 7 7 6 6 5 3 3 4 5 5 5 6 6 6 8 7 7 8 8 11 11 8 9 9 10 9
4 3 5 1 2 4 4 6 2 4 6 12 10 8 10 12 13 11 9 8 8 6 6 5 6 5 4 4 3 3 4 5 6 6 6 6 8 8 9 9 9 10 10 10 10 11 12 13 13
1 6 6 4 4 4 2 10 5 4 4 6 6 9 7 9 12 10 9 8 6 6 5 4 2 2 4 4 4 5 6 6 6 6 6 8 10 12 9 9 10 11 12 11 12 13 13 14 15
Wind_Direction
307 293 230 332 318 207 249 148 88 102 85 47 30 49 100 37 23 135 133 114 91 74 32 13 32 35 34 36 33 31 31 31 32 30 32 35 33 31 32 30 30 31 30 29 29 28 32 110 178
298 295 231 265 230 231 259 110 122 64 99 93 41 91 39 82 78 116 129 118 105 82 55 22 36 38 36 39 35 34 33 33 31 29 31 33 33 31 32 31 29 28 26 24 25 25 26 17 11
260 262 262 197 222 255 29 50 100 95 127 129 103 23 49 81 68 87 107 135 103 91 71 41 41 42 41 40 37 35 34 35 32 30 30 31 29 31 30 30 29 27 24 22 16 17 19 16 10
300 204 274 249 263 64 50 105 117 120 82 25 106 73 71 359 87 99 109 102 89 86 88 52 51 46 42 42 39 36 35 34 30 29 29 27 27 28 29 27 25 25 24 20 14 12 10 9 5
221 263 256 227 248 121 63 114 139 164 142 138 236 133 98 78 100 107 96 81 99 84 84 77 57 52 46 40 39 37 34 35 28 26 25 23 26 24 25 24 21 22 20 17 16 11 6 2 359
272 225 262 245 252 85 93 116 163 151 114 94 121 113 106 132 128 120 116 101 83 89 76 62 51 50 51 42 37 35 34 30 30 27 23 22 23 21 20 21 17 15 16 14 10 9 5 1 355
226 253 248 273 269 145 151 119 199 141 134 140 125 116 125 167 127 135 125 116 105 91 78 60 54 39 38 40 34 33 29 29 27 19 18 20 22 19 16 16 13 11 11 9 6 4 2 0 356
314 286 264 242 261 338 110 129 335 139 121 43 359 163 173 159 139 136 136 120 110 97 83 60 55 35 33 48 32 31 28 26 22 22 17 16 18 15 14 14 9 7 8 6 4 2 359 359 0
190 263 247 268 252 104 136 124 47 9 129 100 52 21 106 135 143 151 148 146 132 101 74 72 51 40 18 53 33 30 25 20 21 21 18 13 15 7 17 9 8 5 6 5 2 359 1 358 355
201 221 242 30 340 136 167 165 150 166 137 154 129 111 125 142 157 161 163 141 125 117 98 69 57 41 25 45 28 36 40 25 22 21 25 10 14 9 12 7 8 6 5 3 2 360 357 356 349
194 229 112 137 23 268 164 192 152 195 194 185 181 159 156 162 171 172 142 137 130 112 85 69 58 45 28 21 22 20 30 23 21 17 26 9 4 2 8 4 5 2 4 4 1 355 353 348 342
287 269 329 97 266 280 170 144 199 215 90 273 154 155 162 170 167 149 135 134 138 121 112 95 64 55 39 34 18 22 21 27 13 10 18 11 7 2 4 3 357 358 5 2 355 349 344 342 339
249 143 34 53 42 300 8 251 202 210 114 92 131 150 168 165 161 149 146 136 135 128 115 96 85 67 51 50 16 22 16 21 344 0 10 11 5 357 357 359 354 352 10 358 345 344 340 343 338
3 40 148 160 195 227 213 242 59 206 132 132 148 162 171 169 161 143 145 156 153 135 120 110 89 59 46 43 14 2 2 2 345 4 7 16 21 354 348 339 340 347 5 348 342 336 336 337 335
349 263 194 205 187 220 188 258 224 134 148 156 166 174 178 174 157 162 169 163 148 134 132 134 136 89 59 46 10 358 355 355 338 10 353 12 28 352 347 329 328 338 348 334 334 334 333 339 332
232 230 262 118 163 149 161 250 212 152 161 175 181 184 180 181 177 166 163 140 135 146 140 128 108 108 73 44 11 350 335 340 341 357 345 6 14 356 354 334 332 334 336 321 317 308 342 333 330
204 243 204 181 188 135 188 257 112 151 176 186 188 190 184 180 173 173 155 147 152 144 142 138 131 117 98 15 326 303 325 324 354 346 348 -0 353 350 351 342 333 338 331 327 323 347 327 321 312
227 241 250 223 207 203 200 247 185 189 193 207 195 193 189 186 181 166 160 155 153 148 143 151 149 148 98 332 337 343 353 353 346 326 343 343 326 339 343 340 330 333 331 326 336 320 320 307 317
0 275 266 286 170 201 237 249 240 195 200 210 203 196 190 186 176 166 162 158 156 157 173 169 129 116 96 14 351 6 328 320 320 314 301 292 316 328 345 315 317 330 330 321 323 318 318 324 315
287 274 270 88 125 181 275 267 255 221 208 207 198 196 187 178 174 170 165 161 166 176 185 157 165 148 138 136 345 271 265 267 265 270 281 353 345 336 314 322 301 306 316 325 316 319 324 321 334
247 240 279 305 295 219 320 279 228 236 226 206 207 195 183 178 173 171 170 169 174 183 174 163 151 147 146 241 311 294 306 307 330 345 346 327 327 311 296 293 298 304 306 302 304 302 295 297 308
255 8 29 4 3 258 163 292 194 189 222 196 192 189 176 176 171 165 171 175 176 185 151 141 148 153 211 113 271 280 270 284 287 302 291 311 305 303 302 297 296 289 287 285 280 288 293 307 295
172 29 44 329 256 315 198 252 259 101 234 212 184 182 165 161 165 167 170 175 182 150 152 168 160 173 207 207 238 256 277 274 284 307 311 310 304 303 315 318 307 289 268 260 261 272 278 277 280
141 184 186 198 246 267 212 184 237 190 208 149 151 167 158 158 157 159 164 170 160 143 148 168 170 187 174 247 273 277 295 301 314 314 303 290 305 316 309 306 303 295 288 280 281 290 291 291 292
266 255 324 235 250 241 346 209 254 213 211 188 173 161 153 151 155 161 167 161 153 161 166 158 169 187 213 291 316 327 320 319 302 294 290 305 296 293 299 298 293 290 288 284 278 268 266 268 267
185 256 189 278 282 298 57 245 251 62 55 25 53 148 139 151 164 158 158 149 137 133 126 160 169 175 266 328 323 327 326 310 295 291 299 302 282 281 281 281 278 280 287 288 281 278 273 267 265
156 196 143 177 228 269 232 279 346 157 194 177 178 161 173 164 170 156 149 148 151 160 175 178 189 184 196 244 307 315 310 303 297 309 296 281 287 291 290 299 292 285 281 278 276 275 273 272 272
173 339 100 262 229 241 260 253 240 231 216 194 191 189 174 168 174 177 168 156 153 156 166 180 180 189 200 196 202 268 288 299 297 292 286 289 296 296 291 292 288 287 285 283 280 279 272 268 268
153 225 229 254 218 227 297 258 275 175 188 192 194 185 176 174 176 185 171 161 166 164 160 161 177 199 192 188 213 225 247 258 266 268 278 285 291 294 291 289 288 283 279 276 273 270 270 267 266
101 208 175 172 211 246 8 265 19 45 11 146 156 169 168 173 172 170 163 155 150 164 178 168 181 196 204 212 206 224 235 240 248 257 267 283 287 283 279 284 285 280 278 276 274 271 270 267 265